Weather History for Challis, ID

Change the Weather History Date:

Tuesday, July 23, 2013

  Actual Average Record
Temperature  
Mean Temperature 70 °F 70 °F  
Max Temperature 91 °F 88 °F 101 °F (1959)
Min Temperature 48 °F 52 °F 40 °F (1951)
Degree Days  
Heating Degree Days 0 0  
Month to date heating degree days 0 18  
Since 1 June heating degree days 121 183  
Since 1 July heating degree days 0 18  
Cooling Degree Days 5 5  
Month to date cooling degree days 165 90  
Year to date cooling degree days 230 114  
Since 1 June cooling degree days 228 112  
Growing Degree Days 21 (Base 50)    
Moisture  
Dew Point 26 °F    
Average Humidity 27    
Maximum Humidity 47    
Minimum Humidity 7    
Precipitation  
Precipitation 0.00 in 0.02 in 0.58 in (1984)
Month to date precipitation 0.54 0.61  
Year to date precipitation 2.28 6.38  
Sea Level Pressure  
Sea Level Pressure 29.99 in    
Wind  
Wind Speed 2 mph (NNW)    
Max Wind Speed 10 mph    
Max Gust Speed 15 mph    
Visibility 9 miles    
Events      
T = Trace of Precipitation, MM = Missing Value Source: NWS Daily Summary

Daily Weather History Graph

Daily Weather History Graph

Search for Another Location

Airport:

Trip Planner

Search our weather history database for the weather conditions in past years. The results will help you decide how hot, cold, wet, or windy it might be!

Date:

Astronomy

Jul. 23, 2013 Rise Set
Actual Time 6:14 AM MDT 9:11 PM MDT
Civil Twilight 5:39 AM MDT 9:46 PM MDT
Nautical Twilight 4:55 AM MDT 10:30 PM MDT
Astronomical Twilight 4:03 AM MDT 11:21 PM MDT
Moon 9:35 PM MDT (7/23) 7:33 AM MDT (7/23)
Length of Visible Light 16h 06m
Length of Day
14h 57m
Full, 99% of the Moon is Illuminated
Jul 23
Full
Jul 29
Last Quarter
Aug 6
New
Aug 14
First Quarter
Aug 20
Full

Hourly Weather History & Observations

Time (MDT) Temp. Dew Point Humidity Pressure Visibility Wind Dir Wind Speed Gust Speed Precip Events Conditions
12:55 AM 66.0 °F 24.1 °F 20% 29.89 in 8.0 mi North 4.6 mph - N/A   Overcast
1:55 AM 64.0 °F 23.0 °F 21% 29.91 in 10.0 mi SSE 3.5 mph - N/A   Mostly Cloudy
2:55 AM 57.0 °F 27.0 °F 32% 29.93 in 10.0 mi Calm Calm - N/A   Overcast
3:55 AM 57.9 °F 26.1 °F 30% 29.94 in 10.0 mi Calm Calm - N/A   Scattered Clouds
4:55 AM 53.1 °F 27.0 °F 37% 29.98 in 10.0 mi Calm Calm - N/A   Mostly Cloudy
5:05 AM 55.4 °F 26.6 °F 33% 30.18 in 10.0 mi Calm Calm - N/A   Overcast
5:55 AM 51.1 °F 28.0 °F 41% 30.01 in 10.0 mi Calm Calm - N/A   Overcast
6:44 AM 51.8 °F 26.6 °F 38% 30.21 in 10.0 mi NW 3.5 mph - N/A   Scattered Clouds
6:55 AM 51.1 °F 27.0 °F 39% 30.04 in 10.0 mi Calm Calm - N/A   Clear
7:55 AM 55.0 °F 35.1 °F 47% 30.05 in 10.0 mi Calm Calm - N/A   Partly Cloudy
8:41 AM 60.8 °F 30.2 °F 31% 30.23 in 10.0 mi Calm Calm - N/A   Mostly Cloudy
8:55 AM 60.1 °F 28.0 °F 30% 30.04 in 10.0 mi Calm Calm - N/A   Overcast
9:55 AM 66.9 °F 27.0 °F 22% 30.04 in 4.0 mi Calm Calm - N/A   Haze
10:31 AM 68.0 °F 37.4 °F 33% 30.23 in 5.0 mi NNE 4.6 mph - N/A   Haze
10:55 AM 70.0 °F 34.0 °F 27% 30.05 in 5.0 mi Calm Calm - N/A   Haze
11:55 AM 77.0 °F 35.1 °F 22% 30.01 in 4.0 mi NE 3.5 mph - N/A   Haze
12:55 PM 82.0 °F 21.9 °F 11% 29.97 in 10.0 mi NE 3.5 mph - N/A   Partly Cloudy
1:55 PM 84.0 °F 17.1 °F 8% 29.94 in 5.0 mi Calm Calm - N/A   Haze
2:55 PM 86.0 °F 17.1 °F 8% 29.93 in 10.0 mi Variable 3.5 mph - N/A   Mostly Cloudy
3:55 PM 89.1 °F 17.1 °F 7% 29.90 in 9.0 mi SSE 3.5 mph - N/A   Clear
4:55 PM 88.0 °F 16.0 °F 7% 29.90 in 10.0 mi Calm Calm - N/A   Partly Cloudy
5:55 PM 91.0 °F 17.1 °F 7% 29.87 in 10.0 mi Calm Calm - N/A   Clear
6:55 PM 88.0 °F 19.9 °F 8% 29.87 in 10.0 mi West 3.5 mph - N/A   Clear
7:55 PM 82.9 °F 26.1 °F 13% 29.88 in 10.0 mi WNW 3.5 mph - N/A   Clear
8:55 PM 80.1 °F 25.0 °F 13% 29.88 in 10.0 mi NNW 5.8 mph - N/A   Clear
9:55 PM 75.0 °F 28.0 °F 18% 29.90 in 10.0 mi NW 6.9 mph - N/A   Clear
10:55 PM 71.1 °F 21.0 °F 15% 29.91 in 10.0 mi WNW 6.9 mph - N/A   Clear
11:55 PM 66.0 °F 30.0 °F 26% 29.92 in 6.0 mi Calm Calm - N/A   Haze